W9LRT-WX Weather Reports


time (UTC)temp
C
wind
direction
speed
KPH
gust
KPH
rain 1hr
cm
rain 24hr
cm
rain mn
cm
humidity
%
barometer
mb
20260509063948 10 184 3.2 9.7 0.00 0.00 0.00 94 1004.9
20260509062419 10 0 4.8 9.7 0.00 0.00 0.00 94 1005.1
20260509060919 10 0 4.8 11.3 0.00 0.00 0.00 94 1005.4
20260509055416 11 0 4.8 9.7 0.00 0.00 0.00 94 1005.5
20260509053916 11 173 4.8 8.0 0.00 0.00 0.00 93 1005.5
20260509052413 11 180 1.6 6.4 0.00 0.00 0.00 93 1005.7
20260509050913 11 0 3.2 8.0 0.00 0.00 0.00 92 1005.8
20260509045409 11 180 1.6 8.0 0.00 0.00 0.00 92 1005.7
20260509043907 11 180 1.6 6.4 0.00 0.00 0.00 92 1005.7
20260509042408 11 180 3.2 8.0 0.00 0.00 0.00 91 1005.7
20260509040907 12 0 3.2 8.0 0.00 0.00 0.00 90 1006.0
20260509035406 12 188 3.2 8.0 0.00 0.00 0.00 88 1006.1
20260509033905 12 188 3.2 8.0 0.00 0.00 0.00 87 1006.1
20260509032407 12 0 3.2 8.0 0.00 0.00 0.00 85 1006.2
20260509030908 13 0 3.2 8.0 0.00 0.00 0.00 83 1006.4
20260509025405 13 204 6.4 12.9 0.00 0.00 0.00 81 1006.4
20260509023904 13 205 6.4 12.9 0.00 0.00 0.00 81 1006.6
20260509022405 13 212 6.4 12.9 0.00 0.00 0.00 81 1006.5
20260509020903 13 193 6.4 12.9 0.00 0.00 0.00 82 1006.4
20260509015404 13 191 8.0 14.5 0.00 0.00 0.00 82 1006.4
20260509013904 13 0 8.0 12.9 0.00 0.00 0.00 82 1006.4
20260509012404 14 0 6.4 12.9 0.00 0.00 0.00 81 1006.1
20260509010903 14 192 4.8 11.3 0.00 0.05 0.00 80 1006.0
20260509005403 14 0 1.6 9.7 0.00 0.10 0.00 79 1005.9
20260509003903 15 0 4.8 8.0 0.00 0.18 0.00 79 1005.9
20260509002402 15 0 3.2 9.7 0.00 0.18 0.00 78 1005.7
20260509000901 15 0 4.8 11.3 0.00 0.18 0.00 77 1005.8
20260508235401 15 223 8.0 16.1 0.00 0.18 0.00 75 1005.9
20260508233911 15 0 6.4 17.7 0.00 0.18 0.00 76 1005.9
20260508232403 15 0 6.4 19.3 0.00 0.18 0.00 76 1005.9
20260508230905 15 246 8.0 20.9 0.00 0.18 0.00 77 1005.9
20260508225402 15 0 9.7 20.9 0.00 0.18 0.00 76 1006.0
20260508223904 15 224 6.4 14.5 0.00 0.18 0.00 76 1006.0
20260508222402 15 202 6.4 14.5 0.00 0.18 0.00 75 1006.1
20260508220902 15 190 6.4 11.3 0.00 0.18 0.00 74 1006.0
20260508215402 15 173 3.2 11.3 0.00 0.18 0.00 76 1006.0
20260508213901 15 161 4.8 11.3 0.00 0.18 0.00 75 1006.1
20260508212401 15 0 6.4 20.9 0.00 0.18 0.00 74 1006.1
20260508210900 15 238 3.2 20.9 0.00 0.18 0.00 72 1006.4
20260508205401 16 0 6.4 20.9 0.00 0.18 0.00 72 1006.4
20260508203901 16 136 3.2 20.9 0.00 0.18 0.00 74 1006.6
20260508202401 15 156 6.4 20.9 0.00 0.18 0.00 74 1006.8
20260508200904 16 155 4.8 20.9 0.00 0.18 0.00 73 1007.0
20260508195402 15 205 6.4 20.9 0.00 0.18 0.00 75 1007.2
20260508193901 15 179 6.4 20.9 0.00 0.18 0.00 77 1007.5
20260508192401 15 111 8.0 20.9 0.00 0.18 0.00 78 1007.7
20260508190900 14 0 6.4 20.9 0.00 0.18 0.00 80 1007.8
20260508185401 13 205 6.4 20.9 0.00 0.18 0.00 81 1008.3
20260508183901 13 229 9.7 20.9 0.00 0.18 0.00 81 1008.4
20260508182402 13 205 8.0 20.9 0.00 0.18 0.00 80 1008.7
20260508180902 13 0 9.7 20.9 0.00 0.18 0.00 79 1008.7
20260508175400 13 0 9.7 20.9 0.00 0.18 0.00 76 1009.1
20260508173900 13 201 8.0 20.9 0.00 0.18 0.00 76 1008.8
20260508172401 13 0 8.0 20.9 0.00 0.18 0.00 80 1009.2
20260508170901 13 214 9.7 20.9 0.00 0.18 0.00 82 1009.7
20260508165400 13 0 11.3 20.9 0.00 0.18 0.00 81 1009.7
20260508163858 13 0 9.7 20.9 0.00 0.18 0.00 82 1009.8
20260508162359 13 0 11.3 20.9 0.00 0.18 0.00 85 1010.0
20260508160858 13 0 9.7 17.7 0.00 0.18 0.00 83 1010.2
20260508155352 13 0 6.4 17.7 0.00 0.18 0.00 81 1010.1
20260508153852 13 0 6.4 17.7 0.00 0.18 0.00 82 1010.1
20260508152352 12 196 6.4 17.7 0.00 0.18 0.00 85 1010.0
20260508150852 12 0 4.8 16.1 0.00 0.18 0.00 87 1010.2
20260508145353 12 0 8.0 16.1 0.00 0.18 0.00 90 1010.1
20260508143852 11 0 8.0 14.5 0.00 0.18 0.00 91 1010.2
20260508142347 11 201 8.0 14.5 0.00 0.18 0.00 92 1010.1
20260508140848 10 187 6.4 14.5 0.00 0.18 0.00 92 1010.4
20260508135346 10 200 8.0 14.5 0.00 0.18 0.00 93 1010.7
20260508133846 9 247 1.6 9.7 0.00 0.18 0.00 93 1010.7
20260508132345 9 0 4.8 11.3 0.00 0.18 0.00 93 1010.8
20260508130847 9 0 4.8 9.7 0.00 0.18 0.00 93 1010.6
20260508125342 8 0 4.8 9.7 0.00 0.18 0.00 94 1010.6
20260508123843 8 201 4.8 9.7 0.00 0.18 0.00 94 1010.7
20260508122342 8 0 3.2 8.0 0.00 0.18 0.00 93 1010.4
20260508120842 8 0 3.2 11.3 0.00 0.18 0.00 94 1010.5
20260508115342 8 0 1.6 6.4 0.00 0.18 0.00 94 1010.4
20260508113842 7 197 0.0 1.6 0.00 0.18 0.00 94 1010.4
20260508112340 7 197 0.0 6.4 0.00 0.18 0.00 93 1010.1
20260508110837 7 197 3.2 8.0 0.00 0.18 0.00 94 1010.2
20260508105337 7 202 3.2 9.7 0.00 0.18 0.00 94 1010.1
20260508103838 7 217 1.6 9.7 0.00 0.18 0.00 93 1010.0
20260508102338 7 0 0.0 0.0 0.00 0.18 0.00 93 1010.0
20260508100838 7 0 0.0 1.6 0.00 0.18 0.00 93 1010.1
20260508095339 7 217 1.6 6.4 0.00 0.18 0.00 93 1010.1
20260508093837 7 217 1.6 8.0 0.00 0.18 0.00 94 1009.9
20260508092335 7 0 4.8 11.3 0.00 0.18 0.00 94 1010.0
20260508090835 7 223 4.8 11.3 0.00 0.18 0.00 94 1010.1
20260508085336 7 0 6.4 14.5 0.00 0.18 0.00 95 1010.1
20260508083833 6 0 4.8 9.7 0.00 0.18 0.00 95 1010.1
20260508082334 6 207 4.8 9.7 0.00 0.18 0.00 95 1010.1
20260508080835 6 0 6.4 9.7 0.00 0.18 0.00 95 1010.2
20260508075334 6 192 4.8 8.0 0.00 0.18 0.00 95 1010.2
20260508073835 6 177 1.6 6.4 0.00 0.18 0.00 95 1010.2
20260508072333 6 176 0.0 6.4 0.00 0.18 0.00 95 1010.2
20260508070835 6 175 0.0 0.0 0.00 0.18 0.00 95 1010.2
20260508065331 6 176 0.0 0.0 0.00 0.18 0.00 95 1010.3